Location: Sternwarte ZA, Rosenfeld-Brittheim
(48.2889°N, 8.6789°E)
Time: 06:16:55
(UTC+02:00)

ISS - Pass Details

Date: 16 September 2020
Orbit: 419 x 420 km, 51.6° (Epoch: 21 September)

Event Time Altitude Azimuth Distance (km) Brightness Sun altitude
Rises 21:35:10 0° 219° (SW) 2,355 0.2 -19.9°
Reaches altitude 10° 21:37:22 10° 209° (SSW) 1,495 -1.0 -20.3°
Enters shadow 21:37:37 12° 208° (SSW) 1,405 -1.1 -20.3°
